Regional Weather Roundup
Issued by NWS

Home | Current Version | Previous Version | Text Only | Print | Product List | Glossary Off
Versions: 1 2 3 4 5 6 7 8 9 10 11 12 13 14 15 16 17 18 19 20 21 22 23 24 25 26 27 28 29 30 31 32 33 34 35 36 37 38 39 40 41 42 43 44 45 46 47 48 49 50

000
ASUS43 KFSD 290002
RWRSD

WEATHER ROUNDUP FOR SOUTH DAKOTA
NATIONAL WEATHER SERVICE SIOUX FALLS SD
600 PM CST FRI NOV 28 2014

NOTE: "FAIR" INDICATES FEW OR NO CLOUDS BELOW 12,000 FEET WITH NO
SIGNIFICANT WEATHER AND/OR OBSTRUCTIONS TO VISIBILITY.


SDZ001>005-009-010-012>017-290100-
NORTHWEST AND NORTH CENTRAL SOUTH DAKOTA

CITY           SKY/WX    TMP DP  RH WIND       PRES   REMARKS
BUFFALO          N/A     44  31  60 SW9       29.44F
FAITH            N/A     38  28  67 S16       29.53S
MOBRIDGE       MOCLDY    25  19  78 SE10      29.55S WCI  15
$$

SDZ012>016-024>037-041>051-057-063-072>074-290100-
SOUTHWEST AND SOUTH CENTRAL SOUTH DAKOTA

CITY           SKY/WX    TMP DP  RH WIND       PRES   REMARKS
RAPID CTY ARPT MOCLDY    52  23  32 NW8       29.57S
PIERRE         PTCLDY    30  24  78 NE8       29.58S WCI  22
CUSTER         CLOUDY    46  22  38 W8        29.65F
PHILIP         PTCLDY    42  30  62 E8        29.55S
PINE RIDGE     MOCLDY    51  24  34 W7        29.63S
WINNER         FAIR      46  30  53 SE8       29.60S
$$

SDZ004>011-016>023-039-040-290100-
NORTHEAST SOUTH DAKOTA

CITY           SKY/WX    TMP DP  RH WIND       PRES   REMARKS
ABERDEEN       PTCLDY    17  12  80 NE5       29.67F WCI  10
WATERTOWN      CLEAR     16  13  88 E9        29.67S WCI   4
SISSETON         N/A     16  13  88 S9        29.74R WCI   4
$$

SDZ017-020-022-023-036>040-048>070-290100-
SOUTHEAST SOUTH DAKOTA

CITY           SKY/WX    TMP DP  RH WIND       PRES   REMARKS
SIOUX FALLS    PTCLDY    29  26  89 E6        29.68R WCI  23
HURON          CLEAR     28  23  81 NE3       29.64F
MITCHELL       CLEAR     31  26  82 E7        29.66R WCI  24
YANKTON        CLEAR     32  27  80 E6        29.65S WCI  26
$$

ABBREVIATIONS USED IN REMARKS
   TC - TEMPERATURE IN CELSIUS
  WCI - WIND CHILL INDEX
   HX - HEAT INDEX
  VSB - VISIBILITY



USA.gov is the U.S. government's official web portal to all federal, state and local government web resources and services.